Total_Precipitation_Accumulation
0.38 0.45 0.50 0.55 0.58 0.60 0.64 0.63 0.64 0.65 0.68 0.72 0.74 0.76 0.79 0.80 0.84 0.90 0.92 0.92 0.95 0.94 0.92 0.92 0.91 0.90 0.96 0.99 1.05 1.12 1.20 1.32 1.31 0.87 0.64 0.57 0.58 0.61 0.65 0.65 0.63 0.64 0.64
0.31 0.37 0.41 0.47 0.54 0.62 0.65 0.65 0.65 0.64 0.64 0.65 0.68 0.72 0.72 0.71 0.72 0.74 0.73 0.74 0.80 0.82 0.81 0.85 0.87 0.88 0.95 1.00 1.07 1.11 1.13 1.14 1.25 1.08 0.82 0.68 0.62 0.62 0.67 0.72 0.72 0.71 0.68
0.24 0.28 0.33 0.38 0.44 0.51 0.56 0.58 0.61 0.61 0.60 0.60 0.62 0.64 0.63 0.62 0.61 0.62 0.65 0.70 0.73 0.74 0.75 0.80 0.81 0.87 0.92 0.92 0.96 1.01 1.03 1.08 1.19 1.25 1.04 0.86 0.81 0.79 0.86 0.89 0.86 0.79 0.69
0.21 0.25 0.29 0.33 0.37 0.42 0.46 0.51 0.54 0.54 0.53 0.55 0.56 0.53 0.51 0.52 0.53 0.57 0.62 0.67 0.71 0.73 0.74 0.75 0.76 0.78 0.80 0.84 0.90 0.95 1.01 1.17 1.30 1.42 1.33 1.17 1.08 1.02 1.04 1.01 0.93 0.79 0.71
0.22 0.25 0.29 0.32 0.36 0.39 0.41 0.42 0.45 0.47 0.48 0.47 0.47 0.46 0.46 0.48 0.51 0.55 0.60 0.66 0.71 0.74 0.75 0.74 0.75 0.86 0.90 0.93 0.97 0.99 1.11 1.35 1.47 1.52 1.41 1.22 1.08 1.00 0.96 0.89 0.92 0.89 0.87
0.21 0.23 0.25 0.27 0.30 0.34 0.36 0.37 0.40 0.42 0.44 0.46 0.47 0.46 0.46 0.49 0.64 0.67 0.63 0.64 0.70 0.74 0.73 0.70 0.71 0.84 0.89 1.00 1.07 1.12 1.20 1.34 1.45 1.50 1.42 1.24 1.02 0.95 1.00 1.12 1.20 1.28 1.14
0.17 0.20 0.23 0.25 0.26 0.27 0.29 0.33 0.36 0.38 0.39 0.38 0.39 0.40 0.42 0.48 0.63 0.63 0.66 0.64 0.64 0.67 0.67 0.68 0.70 0.73 0.88 0.85 1.01 1.19 1.21 1.34 1.43 1.46 1.48 1.27 1.18 1.15 1.35 1.51 1.44 1.38 1.15
0.15 0.18 0.21 0.23 0.26 0.27 0.27 0.28 0.30 0.31 0.34 0.34 0.35 0.35 0.39 0.46 0.58 0.56 0.59 0.59 0.58 0.61 0.62 0.65 0.71 0.75 0.82 0.93 0.97 1.06 1.06 1.12 1.25 1.31 1.31 1.21 1.21 1.26 1.44 1.63 1.69 1.71 1.44
0.19 0.20 0.21 0.22 0.22 0.25 0.26 0.26 0.27 0.28 0.30 0.33 0.35 0.35 0.37 0.42 0.55 0.55 0.58 0.55 0.60 0.61 0.59 0.64 0.72 0.74 0.94 1.12 1.11 1.11 1.09 1.06 1.16 1.25 1.28 1.29 1.36 1.42 1.49 1.73 1.87 1.89 1.58
0.19 0.20 0.21 0.22 0.22 0.22 0.23 0.23 0.25 0.27 0.30 0.32 0.34 0.35 0.36 0.40 0.56 0.61 0.62 0.59 0.63 0.62 0.62 0.67 0.83 0.86 1.00 1.18 1.20 1.23 1.24 1.03 1.03 1.13 1.19 1.23 1.21 1.24 1.41 1.45 1.59 1.92 1.76
0.20 0.19 0.18 0.19 0.20 0.19 0.19 0.21 0.23 0.26 0.31 0.34 0.37 0.39 0.41 0.48 0.61 0.68 0.70 0.68 0.69 0.71 0.70 0.68 0.72 0.95 1.06 1.18 1.26 1.24 1.21 1.23 1.32 1.31 1.27 1.22 1.19 1.20 1.24 1.27 1.35 1.62 1.79
0.18 0.17 0.17 0.16 0.17 0.17 0.18 0.21 0.24 0.28 0.33 0.39 0.44 0.49 0.51 0.56 0.63 0.68 0.74 0.77 0.79 0.88 0.82 0.72 0.76 0.99 1.10 1.20 1.26 1.21 1.26 1.45 1.51 1.47 1.38 1.25 1.16 1.13 1.12 1.16 1.22 1.28 1.34
0.17 0.17 0.18 0.18 0.19 0.19 0.22 0.26 0.30 0.35 0.40 0.44 0.49 0.53 0.54 0.58 0.64 0.72 0.74 0.80 0.86 0.87 0.78 0.83 0.92 1.06 1.14 1.16 1.17 1.21 1.37 1.47 1.47 1.41 1.24 1.05 0.95 0.99 1.10 1.21 1.27 1.28 1.28
0.17 0.19 0.21 0.23 0.25 0.26 0.28 0.31 0.35 0.41 0.49 0.53 0.56 0.58 0.57 0.57 0.60 0.67 0.78 0.88 0.97 0.98 0.93 0.95 1.02 1.11 1.20 1.18 1.17 1.22 1.27 1.24 1.25 1.20 1.07 1.00 1.02 1.12 1.20 1.21 1.30 1.33 1.41
0.20 0.21 0.22 0.25 0.29 0.32 0.35 0.38 0.42 0.46 0.54 0.70 0.76 0.78 0.80 0.75 0.67 0.83 1.03 1.13 1.14 1.14 1.21 1.25 1.18 1.15 1.20 1.16 1.13 1.14 1.16 1.22 1.25 1.20 1.22 1.22 1.17 1.15 1.15 1.15 1.23 1.31 1.35
0.23 0.23 0.24 0.27 0.30 0.33 0.37 0.42 0.48 0.50 0.56 0.67 0.76 0.85 0.85 0.81 0.86 1.03 1.11 1.15 1.18 1.22 1.45 1.35 1.08 0.96 0.94 0.93 0.99 1.04 1.05 1.08 1.09 1.16 1.25 1.23 1.20 1.17 1.18 1.18 1.22 1.25 1.22
0.30 0.31 0.32 0.32 0.34 0.36 0.37 0.40 0.45 0.51 0.53 0.56 0.61 0.68 0.75 0.80 0.90 1.02 1.15 1.26 1.30 1.31 1.42 1.10 0.93 0.91 0.91 0.93 0.98 1.00 0.99 0.97 1.06 1.19 1.23 1.19 1.20 1.23 1.23 1.21 1.19 1.20 1.17
0.34 0.37 0.39 0.39 0.40 0.41 0.43 0.45 0.47 0.50 0.55 0.57 0.57 0.63 0.70 0.78 0.89 1.01 1.18 1.45 1.50 1.24 1.01 0.85 0.87 0.91 0.96 0.99 1.00 1.00 1.00 1.02 1.10 1.16 1.19 1.19 1.21 1.27 1.26 1.17 1.12 1.13 1.14
0.38 0.40 0.42 0.44 0.46 0.48 0.50 0.53 0.56 0.57 0.57 0.58 0.61 0.67 0.71 0.79 0.90 1.01 1.16 1.30 1.07 0.88 0.78 0.81 0.91 1.01 1.05 1.05 1.05 1.03 1.05 1.04 1.04 1.10 1.16 1.16 1.19 1.27 1.25 1.11 1.09 1.11 1.18
0.43 0.46 0.49 0.53 0.56 0.57 0.57 0.60 0.63 0.64 0.65 0.64 0.64 0.66 0.78 0.92 0.98 0.94 0.98 0.97 0.94 0.90 0.84 0.90 0.99 1.07 1.10 1.10 1.08 1.06 1.08 1.06 1.05 1.09 1.09 1.09 1.12 1.18 1.18 1.12 1.11 1.14 1.11
0.51 0.52 0.55 0.60 0.62 0.64 0.66 0.70 0.71 0.73 0.72 0.70 0.69 0.72 0.93 0.99 0.83 0.78 0.85 0.92 0.96 0.95 0.92 0.94 1.00 1.05 1.06 1.06 1.06 1.05 1.03 1.00 0.97 0.99 1.01 1.03 1.06 1.09 1.06 1.09 1.11 1.13 1.14
0.59 0.59 0.61 0.65 0.68 0.73 0.76 0.77 0.79 0.80 0.77 0.76 0.74 0.81 0.95 0.93 0.84 0.83 0.86 0.90 0.94 0.96 0.98 1.00 1.03 1.03 1.04 1.05 1.04 1.04 1.00 0.95 0.91 0.94 0.97 0.98 1.00 1.02 1.03 1.06 1.06 1.07 1.07
0.59 0.62 0.65 0.67 0.71 0.76 0.79 0.78 0.79 0.79 0.78 0.78 0.80 0.84 0.86 0.82 0.77 0.78 0.81 0.85 0.89 0.94 0.96 0.99 0.99 0.96 0.94 0.94 0.95 0.98 0.97 0.92 0.91 0.97 1.03 1.01 0.97 0.96 0.98 0.99 0.97 0.98 0.98
0.59 0.61 0.62 0.65 0.68 0.72 0.74 0.76 0.77 0.78 0.79 0.80 0.80 0.78 0.76 0.77 0.79 0.80 0.82 0.84 0.85 0.85 0.85 0.84 0.84 0.82 0.78 0.78 0.80 0.82 0.85 0.88 0.95 1.00 1.00 0.99 0.94 0.88 0.90 0.93 0.94 0.94 0.96
0.59 0.60 0.61 0.63 0.65 0.67 0.69 0.71 0.73 0.75 0.75 0.75 0.74 0.74 0.75 0.77 0.78 0.78 0.78 0.78 0.76 0.73 0.71 0.70 0.71 0.71 0.69 0.68 0.68 0.69 0.72 0.78 0.82 0.87 0.92 0.94 0.88 0.82 0.82 0.85 0.89 0.92 0.94
0.56 0.58 0.60 0.62 0.63 0.65 0.66 0.67 0.68 0.68 0.69 0.70 0.71 0.72 0.72 0.72 0.71 0.69 0.69 0.69 0.67 0.64 0.62 0.62 0.62 0.61 0.61 0.61 0.62 0.63 0.67 0.75 0.81 0.80 0.83 0.86 0.82 0.75 0.74 0.79 0.81 0.85 0.88